Regional Weather Roundup
Issued by NWS Grand Forks, ND

Home | Current Version | Previous Version | Graphics & Text | Print | Product List | Glossary On
Versions: 1 2 3 4 5 6 7 8 9 10 11 12 13 14 15 16 17 18 19 20 21 22 23 24 25 26 27 28 29 30 31 32 33 34 35 36 37 38 39 40 41 42 43 44 45 46 47 48 49 50
000
ASUS43 KFGF 250310
RWRFGF
PRAIRIE TO PINES  WEATHER ROUNDUP
NATIONAL WEATHER SERVICE EASTERN NORTH DAKOTA/GRAND FORKS ND
1000 PM CDT FRI MAR 24 2017

 **SATELLITE DATA USED TO AUGMENT SKY COVER AT AUTOMATED STATIONS**
 *****  WEATHER ACROSS EASTERN NORTH DAKOTA  *****

CITY           SKY/WX    TMP DP  RH WIND       PRES   REMARKS
GRAND FORKS    FAIR      30  29  96 N6        30.24R WCI  24
GRAND FRKS AFB FAIR      27  26  95 NE6       30.23S WCI  20
DEVILS LAKE    CLOUDY    30  26  85 SE8       30.21R WCI  22
FARGO          FAIR      32  29  88 N7        30.20S
WAHPETON ARPT  FAIR      32  30  93 N10       30.19F WCI  24
$$

 ***** WEATHER ACROSS CENTRAL AND WESTERN NORTH DAKOTA  *****

CITY           SKY/WX    TMP DP  RH WIND       PRES   REMARKS
BISMARCK       FAIR      33  31  92 E8        30.15R
MINOT          FAIR      31  28  89 E14       30.12F WCI  21
JAMESTOWN      CLOUDY    30  27  88 E7        30.19R WCI  23
MINOT AFB      FAIR      30  28  90 SE15      30.11F WCI  19
GARRISON         N/A     32  29  88 SE13      30.11S WCI  22
WILLISTON      FAIR      44  32  62 SE15      29.96F
DICKINSON      FAIR      40  31  70 SE17      30.01F
HETTINGER      FAIR      43  31  62 SE16G23   30.05S
$$

 *****  OTHER AIRPORT OBSERVATIONS IN OUR AREA  *****

CITY           SKY/WX    TMP DP  RH WIND       PRES   REMARKS
WALHALLA       NOT AVBL
GRAFTON AIRPOR FAIR      30  30 100 N5        30.26R
VALLEY CITY AR CLOUDY    30  30 100 NE8       30.21S WCI  23
CANDO          NOT AVBL
CAVALIER APRT    N/A     32  27  80 CALM      30.24F
GWINNER        CLEAR     30  28  93 MISG      30.18F
SHEYENNE NWR     N/A     29  26  90 N5        29.95S WCI  24
ROLLA          CLOUDY    27  28 100 SE12      30.18F WCI  16
 ***** THE ABOVE OBSERVATIONS ARE NON NWS ARE NOT QUALITY
       CONTROLLED AND MAY MIS-REPORT RAIN FOR SNOW...
$$

  *****  WEATHER ACROSS NORTHERN MINNESOTA  *****

CITY           SKY/WX    TMP DP  RH WIND       PRES   REMARKS
FLAG ISLAND    CLOUDY    34  25  69 NE3       30.24F
WARROAD        FAIR      30  27  86 NE6       30.25S WCI  24
ROSEAU         FAIR      32  27  80 E3        30.24S
HALLOCK        FAIR      32  28  86 CALM      30.25R
THF RVR FALLS  FAIR     N/A N/A N/A NE9       30.23R
BAUDETTE       FAIR      31  24  75 NE6       30.22S
WASKISH        CLOUDY    37  28  70 E5        30.23R
CROOKSTON      FAIR      30  28  93 N5        30.24S
GREENBUSH NDAW   N/A     30  28  93 NE2         N/A
$$
  *****  WEATHER ACROSS CENTRAL AND WEST MINNESOTA  *****

CITY           SKY/WX    TMP DP  RH WIND       PRES   REMARKS
FOSSTON        FAIR      28  28 100 NE3       30.20S
BEMIDJI        CLOUDY    36  29  78 E6        30.21S
PARK RAPIDS    CLOUDY    38  27  64 E5        30.19S
ELBOW LAKE     FAIR      34  32  90 CALM      30.19R
WADENA         CLOUDY    36  30  80 NE7       30.19S
DETROIT LAKES  FAIR      36  32  87 SE3       30.20S
MOORHEAD       FAIR      32  28  86 N6        30.21F
FERGUS FALLS   FAIR      34  28  80 E5        30.22R
MORRIS MN      FAIR      34  30  86 E6        30.17R
STAPLES        CLOUDY    37  28  70 E7        30.20R
$$
  *****  WEATHER ELSEWHERE ACROSS MINNESOTA  *****

CITY           SKY/WX    TMP DP  RH WIND       PRES   REMARKS
DULUTH         FLURRIES  34  32  92 E12       30.21S
INTRNTL FALLS  CLOUDY    35  26  69 E3        30.25R
ELY            CLOUDY    34  32  93 CALM      30.23F
CLOQUET        CLOUDY    36  30  80 E7        30.21R
WHEATON        FAIR      32  28  86 N8        30.22R WCI  25
BRAINERD       CLOUDY    35  29  78 NE6       30.20R
HIBBING        CLOUDY    32  31  96 N3        30.22S
ALEXANDRIA     MOCLDY    35  30  82 E9        30.18R
SAINT CLOUD    CLOUDY    39  32  76 E9        30.17F
MINNEAPOLIS    CLOUDY    40  33  76 NE12G21   30.17F
$$

  *****  WEATHER ACROSS SOUTH DAKOTA  *****

CITY           SKY/WX    TMP DP  RH WIND       PRES   REMARKS
SIOUX FALLS    CLOUDY    39  35  86 NE16      30.13F
BROOKINGS      FAIR      36  33  89 NE8       30.12F
WATERTOWN      CLOUDY    34  32  92 E6        30.14F
HURON          FAIR      34  32  92 SE5       30.15S
SISSETON         N/A     29  28  96 NW8       30.19R WCI  21
ABERDEEN       FAIR      32  27  81 NE10      30.17R WCI  24
MITCHELL       CLOUDY    38  35  89 NE10      30.16F
PIERRE         FAIR      37  31  78 E7        30.12R
MOBRIDGE       FAIR      41  30  65 E13       30.10R
RAPID CITY     FAIR      42  29  59 SE7       30.06R
$$

  *****  SOME WEATHER IN NEARBY STATES *****

CITY           SKY/WX    TMP DP  RH WIND       PRES   REMARKS
GLASGOW MT     FAIR      51  31  46 SE15      29.80F
GREAT FALLS MT CLOUDY    54  26  34 W22       29.73S
CHEYENNE WY    FAIR      39  25  57 S7        30.13S
SCOTTSBLUFF NE FAIR      39  28  64 SE6       30.11R
OMAHA NE       RAIN      43  38  82 N13G23    30.00R
DES MOINES IA  CLOUDY    45  42  89 NE18      29.98R
DAVENPORT IA   LGT RAIN  54  53  97 E8        29.99S FOG
CHICAGO IL     CLOUDY    43  36  76 N16       30.07R
EAU CLAIRE WI  CLOUDY    39  34  82 NE8       30.16F
LA CROSSE WI   LGT RAIN  42  38  85 NE8       30.13S
$$

  *****  SOME NATIONAL WEATHER *****

CITY           SKY/WX    TMP DP  RH WIND       PRES   REMARKS
LA GUARDIA NY  MOCLDY    55  32  41 SW14      30.13F
RALEIGH NC     FAIR      58  45  62 S5        30.34R
ATLANTA GA     MOCLDY    67  49  52 SE8       30.29F
NEW ORLEANS LA CLOUDY    71  66  84 SE20G26   30.12R
OKLAHOMA CITY  CLOUDY    59  50  72 NE7       29.71S
ALBUQUERQUE NM FAIR      59  17  19 NW9       30.14R
SALT LAKE CITY MOCLDY    54  36  50 S7        30.01F
LOS ANGELES CA MOCLDY    60  46  59 W17       30.16S
BOISE ID       CLOUDY    46  43  89 E8        30.03S
SEATTLE WA     LGT RAIN  47  44  90 S13       29.93R
$$

*** WEATHER ACROSS MANITOBA...SASKATCHEWAN AND ONTARIO ***
                ***ONTARIO***

CITY           SKY/WX    TMP DP  RH WIND       PRES   REMARKS
GERALDTON      CLEAR     16  -6  38 NE7       30.35R WCI   6
THUNDER BAY    MOCLDY    32  21  64 NE3       30.31R
SIOUX LOOKOUT  PTCLDY    27  18  69 E3        30.27R
TORONTO        CLOUDY    41  37  87 N10       30.12R
BIG TROUT LK   CLEAR     -2  -9  71 CALM      30.40S
PICKLE LAKE    NOT AVBL
DRYDEN         CLOUDY    28  21  74 E3        30.25S
KENORA         MOCLDY    30  21  69 S6        30.24F WCI  24
$$
                *** MANITOBA***

CITY           SKY/WX    TMP DP  RH WIND       PRES   REMARKS
BRANDON        PTCLDY    28  23  80 SE9       30.20S WCI  20
DAUPHIN        CLEAR     28  23  80 SE12      30.18F WCI  18
ISLAND LAKE    PTCLDY    14  -4  44 SE8       30.33F WCI   3
PILOT MOUND      N/A     28  25  86 SE9         N/A  WCI  20
THE PAS        CLOUDY    23  10  58 E9        30.18F WCI  13
THOMPSON       NOT AVBL
WINNIPEG       NOT AVBL
LYNN LAKE      CLOUDY    16   5  62 SE8       30.16F WCI   5
CHURCHILL      CLEAR     -4 -13  65 SW8       30.39S WCI -19
GILLAM         CLEAR      0 -13  55 SE5       30.38F WCI -10
$$
                ***SASKATCHEWAN***

CITY           SKY/WX    TMP DP  RH WIND       PRES   REMARKS
ESTEVAN        PTCLDY    32  30  93 SE18G25   30.02S WCI  20
KINDERSLEY     CLOUDY    41  36  81 E14       29.70F
LLOYDMINSTER   MOCLDY    34  30  86 E18G25    29.74F WCI  23
PRINCE ALBERT  CLOUDY    32  23  69 E17       29.96F WCI  21
REGINA         CLOUDY    34  30  86 SE24G32   29.92F WCI  21
YORKTON        PTCLDY    30  27  86 SE16G24   30.06S WCI  19
N. BATTLEFORD  CLOUDY    34  28  80 E24G30    29.81F WCI  21
LA RONGE       MOCLDY    28  19  69 E12       30.02S WCI  18
SASKATOON      CLOUDY    39  30  70 E18G25    29.85F
SWIFT CURRENT  CLOUDY    48  32  53 S13       29.73S
$$
NOTE: THESE ARE AUTOMATED STATIONS WITH LIMITED QUALITY CONTROL
      "FAIR" INDICATES FEW OR NO CLOUDS BELOW 12,000 FEET WITH NO
      SIGNIFICANT WEATHER AND/OR OBSTRUCTIONS TO VISIBILITY.
      SKY/WX - SKY CONDITION AND SIGNIFICANT WEATHER.
      TMP - AIR TEMPERATURE.    DP   - DEWPOINT TEMPERATURE.
      RH  - RELATIVE HUMIDITY.  PRES - PRESSURE.
      HX  - HEAT INDEX.         WCI  - WIND CHILL INDEX.
$




USA.gov is the U.S. government's official web portal to all federal, state and local government web resources and services.